Winston-Salem, NC

3:11 AM EDT on August 20, 2017 (GMT -0400)
Smith Reynolds

Weather History for KINT - April, 2014

Change the Weather History Date:

Wednesday, April 2, 2014

  Actual Average Record
Temperature  
Mean Temperature 68 °F -  
Max Temperature 84 °F 64 °F 85 °F (1978)
Min Temperature 54 °F 44 °F 27 °F (1984)
Cooling Degree Days 3    
Growing Degree Days 18 (Base 50)    
Moisture  
Dew Point 35 °F    
Average Humidity 29    
Maximum Humidity 49    
Minimum Humidity 18    
Precipitation  
Precipitation 0.00 in - - ()
Sea Level Pressure  
Sea Level Pressure 30.03 in    
Wind  
Wind Speed 3 mph (SW)    
Max Wind Speed 9 mph    
Max Gust Speed 16 mph    
Visibility 10 miles    
Events      
Averages and records for this station are not official NWS values.
T = Trace of Precipitation, MM = Missing Value Source: NWS Daily Summary

Daily Weather History Graph

Daily Weather History Graph

Search for Another Location

Airport or City:

Trip Planner

Search our weather history database for the weather conditions in past years. The results will help you decide how hot, cold, wet, or windy it might be!

Date:

Astronomy

Apr. 02, 2014 Rise Set
Actual Time 7:05 AM EDT 7:43 PM EDT
Civil Twilight 6:39 AM EDT 8:09 PM EDT
Nautical Twilight 6:09 AM EDT 8:40 PM EDT
Astronomical Twilight 5:38 AM EDT 9:11 PM EDT
Moon 8:53 AM EDT (4/2) 10:59 PM EDT (4/2)
Length of Visible Light 13h 29m
Length of Day
12h 37m
Waxing Crescent, 10% of the Moon is Illuminated
Apr 2
Waxing Crescent
Apr 7
First Quarter
Apr 15
Full
Apr 22
Last Quarter
Apr 29
New

Hourly Weather History & Observations

Time (EDT) Temp. Dew Point Humidity Pressure Visibility Wind Dir Wind Speed Gust Speed Precip Events Conditions
12:54 AM 55.9 °F 35.1 °F 45% 30.04 in 10.0 mi Calm Calm - N/A   Clear
1:54 AM 55.9 °F 35.1 °F 45% 30.03 in 10.0 mi Calm Calm - N/A   Clear
2:54 AM 54.0 °F 35.1 °F 49% 30.02 in 10.0 mi Calm Calm - N/A   Clear
3:54 AM 59.0 °F 34.0 °F 39% 30.02 in 10.0 mi South 3.5 mph - N/A   Clear
4:54 AM 57.9 °F 35.1 °F 42% 30.02 in 10.0 mi Calm Calm - N/A   Clear
5:54 AM 57.9 °F 35.1 °F 42% 30.03 in 10.0 mi Calm Calm - N/A   Clear
6:54 AM 57.0 °F 35.1 °F 44% 30.05 in 10.0 mi Calm Calm - N/A   Clear
8:54 AM 61.0 °F 37.9 °F 42% 30.07 in 10.0 mi WNW 3.5 mph - N/A   Clear
9:54 AM 69.1 °F 39.0 °F 33% 30.08 in 10.0 mi West 4.6 mph - N/A   Clear
10:54 AM 75.0 °F 35.1 °F 23% 30.09 in 10.0 mi NW 4.6 mph - N/A   Clear
11:54 AM 78.1 °F 35.1 °F 21% 30.07 in 10.0 mi WNW 5.8 mph - N/A   Clear
12:54 PM 81.0 °F 34.0 °F 18% 30.06 in 10.0 mi North - - N/A   Clear
1:54 PM 81.0 °F 35.1 °F 19% 30.04 in 10.0 mi Variable 5.8 mph 16.1 mph N/A   Clear
2:54 PM 82.9 °F 37.0 °F 19% 30.02 in 10.0 mi SSW 6.9 mph - N/A   Clear
3:54 PM 82.9 °F 37.0 °F 19% 29.99 in 10.0 mi South 5.8 mph - N/A   Clear
4:54 PM 82.9 °F 37.0 °F 19% 29.99 in 10.0 mi Variable 5.8 mph - N/A   Clear
5:54 PM 82.9 °F 39.9 °F 22% 29.98 in 10.0 mi SW 8.1 mph - N/A   Clear
6:54 PM 82.0 °F 34.0 °F 18% 29.98 in 10.0 mi South 9.2 mph - N/A   Clear
7:54 PM 79.0 °F 34.0 °F 20% 29.99 in 10.0 mi SSW 3.5 mph - N/A   Clear
8:54 PM 77.0 °F 35.1 °F 22% 30.01 in 10.0 mi SSW 3.5 mph - N/A   Clear
9:54 PM 75.0 °F 34.0 °F 22% 30.01 in 10.0 mi SSW 3.5 mph - N/A   Clear
10:54 PM 73.0 °F 32.0 °F 22% 30.01 in 10.0 mi SSW 3.5 mph - N/A   Clear
11:54 PM 71.6 °F 30.2 °F 22% 30.04 in 10.0 mi SW 4.6 mph - N/A   Clear